Tracking 19644 objects as of 25-Apr-2019
HD Live streaming from Space Station
objects crossing your sky now

CZ-4 DEB

Track CZ-4 DEB now!
10-day predictions


NORAD ID: 26126
Int'l Code: 1999-057N
Perigee: 696.1 km
Apogee: 847.5 km
Inclination: 98.7 °
Period: 100.1 minutes
Semi major axis: 7142 km
RCS: 0.0135 m2 (small)
Launch date: October 14, 1999
Source: People's Republic of China (PRC)
Launch site: Taiyaun Space Center, China (TSC)

Note: This is SATELLITE DEBRIS
aabbcc
Your satellite tracking list
Your tracking list is empty




NASA's NSSDC Master Catalog

Two Line Element Set (TLE):
1 26126U 99057N   19114.50468906 +.00000210 +00000-0 +79533-4 0  9995
2 26126 098.6524 084.7294 0105988 036.0641 088.1040 14.38139030999918
Source of the keplerian elements: AFSPC